AEE764 LGAV-EFHK

Flight info

Callsign AEE764
Flight time 3h 27m
Altitude 34000
Route KRO UG33 KOROS DCT ATFIR DCT LOMOS/N0449F360 DCT OLMIP DCT KEKED/N0440F350 DCT PODAN/N0441F370 M857 BOKSU DCT GUNTA M857 SOKVA DCT KEMET Q11 INTOR
Aircraft A320/M-SDE3FGHIRWY/LB1

Departure

Time 2026-05-06 09:54
Airport Athens Eleftherios Venizelos International Airport (LGAV)

Arrival

Time 2026-05-06 13:21
Airport Helsinki Vantaa Airport (EFHK)
Time Latitude Longitude Altitude Speed Heading
2026-05-06 09:26 37.93751 23.94967 301 ft 0 kts 307°
2026-05-06 09:45 37.93747 23.94974 301 ft 3 kts 307°
2026-05-06 09:45 37.93737 23.94992 302 ft 3 kts 307°
2026-05-06 09:45 37.93727 23.95009 300 ft 2 kts 307°
2026-05-06 09:45 37.93716 23.95027 303 ft 3 kts 302°
2026-05-06 09:46 37.93709 23.95048 301 ft 3 kts 266°
2026-05-06 09:46 37.93713 23.95069 300 ft 3 kts 236°
2026-05-06 09:46 37.93720 23.95079 302 ft 0 kts 222°
2026-05-06 09:49 37.93719 23.95079 302 ft 1 kts 222°
2026-05-06 09:49 37.93713 23.95071 300 ft 2 kts 222°
2026-05-06 09:49 37.93698 23.95055 302 ft 3 kts 220°
2026-05-06 09:49 37.93671 23.95028 304 ft 7 kts 217°
2026-05-06 09:50 37.93616 23.94976 301 ft 12 kts 217°
2026-05-06 09:50 37.93533 23.94897 301 ft 17 kts 217°
2026-05-06 09:50 37.93465 23.94858 301 ft 16 kts 161°
2026-05-06 09:50 37.93393 23.94966 302 ft 17 kts 130°
2026-05-06 09:51 37.93294 23.94947 301 ft 16 kts 218°
2026-05-06 09:51 37.93200 23.94857 300 ft 18 kts 217°
2026-05-06 09:51 37.93100 23.94757 302 ft 19 kts 216°
2026-05-06 09:51 37.92991 23.94657 304 ft 20 kts 217°
2026-05-06 09:52 37.92876 23.94548 302 ft 21 kts 216°
2026-05-06 09:52 37.92755 23.94437 303 ft 22 kts 218°
2026-05-06 09:52 37.92632 23.94317 303 ft 20 kts 216°
2026-05-06 09:52 37.92540 23.94321 305 ft 13 kts 130°
2026-05-06 09:53 37.92486 23.94417 309 ft 13 kts 103°
2026-05-06 09:53 37.92541 23.94504 307 ft 16 kts 40°
2026-05-06 09:53 37.92743 23.94698 303 ft 73 kts 35°
2026-05-06 09:53 37.93360 23.95284 289 ft 145 kts 38°
2026-05-06 09:54 37.94280 23.96149 686 ft 168 kts 39°
2026-05-06 09:54 37.95207 23.97038 1548 ft 172 kts 39°
2026-05-06 09:54 37.96166 23.97997 2331 ft 177 kts 38°
2026-05-06 09:54 37.97107 23.98972 2998 ft 176 kts 38°
2026-05-06 09:55 37.98056 23.99972 3602 ft 180 kts 37°
2026-05-06 09:55 37.99014 24.00999 4256 ft 181 kts 38°
2026-05-06 09:55 37.99972 24.02034 4923 ft 181 kts 38°
2026-05-06 09:55 38.00926 24.03071 5465 ft 181 kts 38°
2026-05-06 09:56 38.01888 24.04101 5926 ft 181 kts 33°
2026-05-06 09:56 38.02992 24.04839 6397 ft 179 kts 15°
2026-05-06 09:56 38.04214 24.05088 6851 ft 178 kts 356°
2026-05-06 09:56 38.05456 24.05088 7276 ft 180 kts 358°
2026-05-06 09:57 38.06715 24.05110 7708 ft 182 kts 359°
2026-05-06 09:57 38.07984 24.05152 8151 ft 183 kts 360°
2026-05-06 09:57 38.09252 24.05179 8517 ft 190 kts 356°
2026-05-06 09:57 38.10629 24.05088 8725 ft 206 kts 354°
2026-05-06 09:58 38.12124 24.04950 8904 ft 225 kts 354°
2026-05-06 09:58 38.13738 24.04796 9202 ft 241 kts 354°
2026-05-06 09:58 38.15450 24.04642 9693 ft 250 kts 355°
2026-05-06 09:58 38.17195 24.04491 10347 ft 253 kts 355°
2026-05-06 09:59 38.18957 24.04345 10987 ft 255 kts 355°
2026-05-06 09:59 38.20730 24.04199 11618 ft 257 kts 355°
2026-05-06 09:59 38.22517 24.04055 12241 ft 258 kts 355°
2026-05-06 09:59 38.24320 24.03910 12839 ft 260 kts 355°
2026-05-06 10:00 38.26135 24.03765 13429 ft 263 kts 355°
2026-05-06 10:00 38.27966 24.03620 14011 ft 264 kts 355°
2026-05-06 10:00 38.29805 24.03473 14540 ft 266 kts 355°
2026-05-06 10:00 38.31657 24.03326 15066 ft 267 kts 354°
2026-05-06 10:01 38.33515 24.03178 15599 ft 268 kts 354°
2026-05-06 10:01 38.35379 24.03027 16134 ft 269 kts 354°
2026-05-06 10:01 38.37228 24.02880 16660 ft 270 kts 354°
2026-05-06 10:01 38.39109 24.02730 17168 ft 272 kts 354°
2026-05-06 10:02 38.41003 24.02579 17693 ft 273 kts 353°
2026-05-06 10:02 38.42907 24.02426 18218 ft 275 kts 353°
2026-05-06 10:02 38.44820 24.02270 18677 ft 277 kts 353°
2026-05-06 10:02 38.46747 24.02112 19124 ft 278 kts 353°
2026-05-06 10:03 38.48680 24.01956 19562 ft 279 kts 353°
2026-05-06 10:03 38.50626 24.01802 20003 ft 280 kts 353°
2026-05-06 10:03 38.52577 24.01646 20440 ft 282 kts 353°
2026-05-06 10:03 38.54543 24.01484 20855 ft 283 kts 353°
2026-05-06 10:04 38.56514 24.01320 21249 ft 285 kts 353°
2026-05-06 10:04 38.58499 24.01156 21642 ft 286 kts 353°
2026-05-06 10:04 38.60492 24.00995 22021 ft 288 kts 353°
2026-05-06 10:04 38.62502 24.00837 22397 ft 291 kts 353°
2026-05-06 10:05 38.64528 24.00678 22773 ft 293 kts 353°
2026-05-06 10:05 38.66568 24.00518 23185 ft 294 kts 353°
2026-05-06 10:05 38.68618 24.00352 23574 ft 296 kts 353°
2026-05-06 10:05 38.70682 24.00182 23888 ft 298 kts 353°
2026-05-06 10:06 38.72755 24.00012 24184 ft 300 kts 353°
2026-05-06 10:06 38.74843 23.99843 24497 ft 301 kts 353°
2026-05-06 10:06 38.76936 23.99675 24801 ft 302 kts 353°
2026-05-06 10:06 38.79011 23.99508 25097 ft 304 kts 353°
2026-05-06 10:07 38.81129 23.99338 25397 ft 305 kts 353°
2026-05-06 10:07 38.83251 23.99164 25712 ft 306 kts 353°
2026-05-06 10:07 38.85382 23.98987 25991 ft 308 kts 353°
2026-05-06 10:07 38.87528 23.98809 26284 ft 309 kts 353°
2026-05-06 10:08 38.89678 23.98633 26560 ft 311 kts 353°
2026-05-06 10:08 38.91841 23.98458 26856 ft 312 kts 353°
2026-05-06 10:08 38.94016 23.98284 27133 ft 314 kts 353°
2026-05-06 10:08 38.96196 23.98108 27410 ft 315 kts 353°
2026-05-06 10:09 38.98390 23.97931 27682 ft 317 kts 353°
2026-05-06 10:09 39.00604 23.97750 27861 ft 322 kts 353°
2026-05-06 10:09 39.02855 23.97562 27991 ft 327 kts 353°
2026-05-06 10:09 39.05153 23.97370 28125 ft 334 kts 353°
2026-05-06 10:10 39.07492 23.97177 28261 ft 340 kts 353°
2026-05-06 10:10 39.09847 23.96982 28402 ft 347 kts 353°
2026-05-06 10:10 39.12285 23.96780 28530 ft 354 kts 353°
2026-05-06 10:10 39.14768 23.96574 28669 ft 361 kts 353°
2026-05-06 10:11 39.17296 23.96367 28806 ft 368 kts 353°
2026-05-06 10:11 39.19874 23.96156 28943 ft 374 kts 353°
2026-05-06 10:11 39.22489 23.95943 29083 ft 380 kts 353°
2026-05-06 10:11 39.25149 23.95729 29220 ft 385 kts 353°
2026-05-06 10:12 39.27845 23.95511 29370 ft 391 kts 353°
2026-05-06 10:12 39.30572 23.95283 29503 ft 396 kts 353°
2026-05-06 10:12 39.33338 23.95050 29647 ft 400 kts 353°
2026-05-06 10:12 39.36126 23.94815 29900 ft 403 kts 353°
2026-05-06 10:13 39.38885 23.94584 30238 ft 402 kts 353°
2026-05-06 10:13 39.41676 23.94357 30582 ft 401 kts 353°
2026-05-06 10:13 39.44458 23.94133 30920 ft 400 kts 353°
2026-05-06 10:13 39.47233 23.93910 31254 ft 399 kts 353°
2026-05-06 10:14 39.50001 23.93686 31594 ft 398 kts 353°
2026-05-06 10:14 39.52763 23.93461 31935 ft 397 kts 353°
2026-05-06 10:14 39.55519 23.93233 32274 ft 396 kts 353°
2026-05-06 10:14 39.58270 23.93005 32615 ft 395 kts 353°
2026-05-06 10:15 39.61010 23.92778 32947 ft 395 kts 353°
2026-05-06 10:15 39.63749 23.92550 33281 ft 394 kts 353°
2026-05-06 10:15 39.66475 23.92321 33606 ft 393 kts 353°
2026-05-06 10:15 39.69201 23.92089 33932 ft 392 kts 353°
2026-05-06 10:16 39.71920 23.91858 34082 ft 393 kts 353°
2026-05-06 10:16 39.74635 23.91629 34096 ft 399 kts 353°
2026-05-06 10:16 39.80256 23.91159 34097 ft 408 kts 353°
2026-05-06 10:17 39.85933 23.90692 34099 ft 409 kts 353°
2026-05-06 10:17 39.91614 23.90221 34097 ft 409 kts 353°
2026-05-06 10:18 39.97290 23.89748 34098 ft 409 kts 353°
2026-05-06 10:18 40.02969 23.89265 34102 ft 409 kts 353°
2026-05-06 10:19 40.08653 23.88771 34111 ft 409 kts 353°
2026-05-06 10:19 40.14297 23.88289 34113 ft 409 kts 353°
2026-05-06 10:20 40.19973 23.87813 34117 ft 408 kts 353°
2026-05-06 10:20 40.25647 23.87337 34119 ft 408 kts 353°
2026-05-06 10:21 40.31314 23.86863 34120 ft 408 kts 353°
2026-05-06 10:21 40.36985 23.86388 34116 ft 408 kts 353°
2026-05-06 10:22 40.42651 23.85909 34116 ft 408 kts 353°
2026-05-06 10:22 40.48317 23.85416 34116 ft 408 kts 353°
2026-05-06 10:23 40.53939 23.84933 34109 ft 408 kts 353°
2026-05-06 10:23 40.59605 23.84458 34109 ft 408 kts 353°
2026-05-06 10:24 40.65268 23.83975 34111 ft 408 kts 353°
2026-05-06 10:24 40.70928 23.83476 34106 ft 408 kts 353°
2026-05-06 10:25 40.76591 23.82990 34104 ft 408 kts 353°
2026-05-06 10:25 40.82251 23.82504 34100 ft 408 kts 353°
2026-05-06 10:26 40.87876 23.82019 34099 ft 408 kts 353°
2026-05-06 10:26 40.93540 23.81526 34097 ft 408 kts 353°
2026-05-06 10:27 40.99205 23.81040 34097 ft 408 kts 353°
2026-05-06 10:27 41.04869 23.80554 34094 ft 408 kts 354°
2026-05-06 10:28 41.10539 23.80063 34087 ft 408 kts 353°
2026-05-06 10:28 41.16211 23.79564 34087 ft 408 kts 353°
2026-05-06 10:29 41.21884 23.79072 34071 ft 409 kts 354°
2026-05-06 10:29 41.27557 23.78571 34083 ft 408 kts 353°
2026-05-06 10:30 41.33187 23.78074 34100 ft 408 kts 354°
2026-05-06 10:30 41.38855 23.77587 34088 ft 408 kts 354°
2026-05-06 10:31 41.44461 23.76581 34095 ft 407 kts 349°
2026-05-06 10:31 41.50052 23.75405 34082 ft 407 kts 349°
2026-05-06 10:32 41.55645 23.74251 34093 ft 406 kts 349°
2026-05-06 10:32 41.61230 23.73093 34091 ft 406 kts 349°
2026-05-06 10:33 41.66814 23.71930 34087 ft 406 kts 349°
2026-05-06 10:33 41.72403 23.70755 34086 ft 407 kts 349°
2026-05-06 10:34 41.77961 23.69585 34094 ft 407 kts 349°
2026-05-06 10:34 41.83553 23.68408 34095 ft 406 kts 349°
2026-05-06 10:35 41.89141 23.67233 34096 ft 407 kts 349°
2026-05-06 10:35 41.94741 23.66053 34097 ft 407 kts 349°
2026-05-06 10:36 42.00341 23.64874 34100 ft 408 kts 349°
2026-05-06 10:36 42.05943 23.63694 34090 ft 408 kts 349°
2026-05-06 10:37 42.11546 23.62510 34096 ft 408 kts 349°
2026-05-06 10:37 42.17154 23.61312 34096 ft 408 kts 349°
2026-05-06 10:38 42.22760 23.60112 34095 ft 408 kts 349°
2026-05-06 10:38 42.28368 23.58919 34091 ft 408 kts 349°
2026-05-06 10:39 42.33974 23.57715 34095 ft 408 kts 349°
2026-05-06 10:39 42.39555 23.56527 34091 ft 408 kts 349°
2026-05-06 10:40 42.45202 23.55321 34084 ft 409 kts 349°
2026-05-06 10:40 42.50782 23.54116 34079 ft 409 kts 349°
2026-05-06 10:41 42.56402 23.52904 34081 ft 409 kts 349°
2026-05-06 10:41 42.62021 23.51696 34078 ft 409 kts 349°
2026-05-06 10:42 42.67640 23.50488 34078 ft 409 kts 349°
2026-05-06 10:42 42.73256 23.49274 34078 ft 409 kts 349°
2026-05-06 10:43 42.78871 23.48056 34078 ft 409 kts 349°
2026-05-06 10:44 42.87310 23.46214 34077 ft 409 kts 349°
2026-05-06 10:44 42.92931 23.44991 34069 ft 409 kts 349°
2026-05-06 10:45 42.98519 23.43779 34065 ft 409 kts 349°
2026-05-06 10:45 43.04153 23.42554 34062 ft 410 kts 349°
2026-05-06 10:46 43.09784 23.41319 34062 ft 410 kts 350°
2026-05-06 10:46 43.15422 23.40079 34050 ft 411 kts 349°
2026-05-06 10:47 43.21059 23.38837 34050 ft 410 kts 350°
2026-05-06 10:47 43.26700 23.37594 34030 ft 411 kts 349°
2026-05-06 10:48 43.32352 23.36351 34045 ft 411 kts 350°
2026-05-06 10:48 43.37999 23.35107 34029 ft 411 kts 350°
2026-05-06 10:49 43.43650 23.33854 34039 ft 411 kts 350°
2026-05-06 10:49 43.49302 23.32595 34023 ft 412 kts 350°
2026-05-06 10:50 43.54958 23.31334 34027 ft 412 kts 350°
2026-05-06 10:50 43.60624 23.30078 34027 ft 412 kts 349°
2026-05-06 10:51 43.66194 23.28248 34025 ft 412 kts 345°
2026-05-06 10:51 43.71692 23.26167 34026 ft 412 kts 344°
2026-05-06 10:52 43.77220 23.24039 34028 ft 413 kts 344°
2026-05-06 10:52 43.82759 23.21942 34027 ft 413 kts 344°
2026-05-06 10:53 43.88310 23.19864 34028 ft 413 kts 345°
2026-05-06 10:53 43.93861 23.17776 34025 ft 414 kts 344°
2026-05-06 10:54 43.99414 23.15675 34032 ft 414 kts 344°
2026-05-06 10:54 44.04037 23.13920 34025 ft 414 kts 344°
2026-05-06 10:55 44.09598 23.11801 34020 ft 415 kts 344°
2026-05-06 10:55 44.16074 23.09338 34025 ft 415 kts 344°
2026-05-06 10:56 44.21650 23.07218 34022 ft 415 kts 345°
2026-05-06 10:56 44.26326 23.05440 34020 ft 416 kts 345°
2026-05-06 10:57 44.31907 23.03312 34029 ft 416 kts 345°
2026-05-06 10:57 44.37455 23.01182 34035 ft 416 kts 344°
2026-05-06 10:58 44.43047 22.99028 34028 ft 417 kts 345°
2026-05-06 10:58 44.48641 22.96880 34027 ft 417 kts 344°
2026-05-06 10:59 44.54241 22.94723 34029 ft 417 kts 344°
2026-05-06 10:59 44.59844 22.92555 34023 ft 418 kts 344°
2026-05-06 11:00 44.65446 22.90385 34021 ft 418 kts 345°
2026-05-06 11:00 44.71061 22.88219 34026 ft 418 kts 345°
2026-05-06 11:01 44.76672 22.86041 34029 ft 418 kts 344°
2026-05-06 11:01 44.82286 22.83850 34025 ft 419 kts 345°
2026-05-06 11:02 44.87901 22.81662 34028 ft 419 kts 345°
2026-05-06 11:02 44.93531 22.79472 34026 ft 420 kts 345°
2026-05-06 11:03 44.99123 22.77284 34031 ft 420 kts 344°
2026-05-06 11:03 45.04752 22.75072 34028 ft 420 kts 344°
2026-05-06 11:04 45.10388 22.72856 34036 ft 420 kts 344°
2026-05-06 11:04 45.16018 22.70635 34034 ft 420 kts 344°
2026-05-06 11:05 45.21655 22.68406 34025 ft 421 kts 344°
2026-05-06 11:05 45.27301 22.66173 34020 ft 421 kts 344°
2026-05-06 11:06 45.32946 22.63935 34021 ft 421 kts 344°
2026-05-06 11:06 45.38596 22.61677 34019 ft 422 kts 344°
2026-05-06 11:07 45.44243 22.59424 34018 ft 422 kts 344°
2026-05-06 11:07 45.49899 22.57182 34012 ft 422 kts 344°
2026-05-06 11:08 45.55558 22.54930 34003 ft 422 kts 344°
2026-05-06 11:08 45.61218 22.52657 34000 ft 423 kts 344°
2026-05-06 11:09 45.66881 22.50380 34005 ft 423 kts 344°
2026-05-06 11:09 45.72510 22.48113 33999 ft 423 kts 344°
2026-05-06 11:10 45.78181 22.45831 33999 ft 423 kts 343°
2026-05-06 11:10 45.83856 22.43539 33999 ft 424 kts 343°
2026-05-06 11:11 45.89527 22.41236 34006 ft 424 kts 343°
2026-05-06 11:11 45.95201 22.38936 33999 ft 424 kts 343°
2026-05-06 11:12 46.00884 22.36624 34002 ft 424 kts 343°
2026-05-06 11:12 46.06565 22.34309 34005 ft 425 kts 343°
2026-05-06 11:13 46.12258 22.31988 34002 ft 425 kts 343°
2026-05-06 11:13 46.17943 22.29661 34000 ft 425 kts 343°
2026-05-06 11:14 46.23599 22.27337 34002 ft 425 kts 343°
2026-05-06 11:14 46.29298 22.24992 33996 ft 426 kts 343°
2026-05-06 11:15 46.34994 22.22639 33999 ft 426 kts 343°
2026-05-06 11:15 46.40704 22.20286 33994 ft 426 kts 343°
2026-05-06 11:16 46.46409 22.17937 33994 ft 427 kts 343°
2026-05-06 11:16 46.52125 22.15576 33990 ft 427 kts 343°
2026-05-06 11:17 46.57847 22.13195 33993 ft 428 kts 343°
2026-05-06 11:17 46.63574 22.10811 33990 ft 428 kts 343°
2026-05-06 11:18 46.69303 22.08418 33997 ft 429 kts 343°
2026-05-06 11:18 46.75004 22.06027 33995 ft 429 kts 343°
2026-05-06 11:19 46.80745 22.03617 34003 ft 430 kts 343°
2026-05-06 11:19 46.86501 22.01201 34007 ft 430 kts 343°
2026-05-06 11:20 46.92258 21.98778 34009 ft 431 kts 342°
2026-05-06 11:20 46.98017 21.96355 34009 ft 431 kts 342°
2026-05-06 11:21 47.03781 21.93915 34002 ft 431 kts 342°
2026-05-06 11:21 47.09548 21.91471 33999 ft 431 kts 342°
2026-05-06 11:22 47.15317 21.89028 33991 ft 432 kts 342°
2026-05-06 11:22 47.21101 21.86564 33988 ft 433 kts 342°
2026-05-06 11:23 47.26883 21.84094 33983 ft 433 kts 342°
2026-05-06 11:23 47.32669 21.81622 33966 ft 433 kts 342°
2026-05-06 11:24 47.38454 21.79139 33966 ft 433 kts 342°
2026-05-06 11:24 47.44255 21.76652 33962 ft 434 kts 342°
2026-05-06 11:25 47.50008 21.74181 33966 ft 434 kts 342°
2026-05-06 11:25 47.55812 21.71680 33964 ft 435 kts 342°
2026-05-06 11:26 47.61622 21.69161 33964 ft 435 kts 341°
2026-05-06 11:26 47.67432 21.66629 33966 ft 436 kts 341°
2026-05-06 11:27 47.73249 21.64090 33962 ft 436 kts 341°
2026-05-06 11:27 47.79072 21.61554 33950 ft 436 kts 341°
2026-05-06 11:28 47.84912 21.59010 33932 ft 440 kts 340°
2026-05-06 11:28 47.90822 21.56422 33920 ft 443 kts 340°
2026-05-06 11:29 47.96738 21.53827 33930 ft 444 kts 340°
2026-05-06 11:29 48.02622 21.51241 33938 ft 444 kts 340°
2026-05-06 11:30 48.08548 21.48630 33940 ft 444 kts 340°
2026-05-06 11:30 48.14486 21.46006 33946 ft 445 kts 340°
2026-05-06 11:31 48.20424 21.43373 33944 ft 445 kts 340°
2026-05-06 11:31 48.26370 21.40742 33942 ft 446 kts 340°
2026-05-06 11:32 48.32324 21.38091 33940 ft 446 kts 340°
2026-05-06 11:32 48.38272 21.35433 33940 ft 446 kts 340°
2026-05-06 11:33 48.44221 21.32768 33940 ft 447 kts 340°
2026-05-06 11:33 48.50208 21.30217 33938 ft 449 kts 346°
2026-05-06 11:34 48.56434 21.29778 33935 ft 457 kts
2026-05-06 11:34 48.62759 21.30848 33937 ft 457 kts
2026-05-06 11:35 48.69093 21.31896 33939 ft 458 kts
2026-05-06 11:35 48.75428 21.32920 33939 ft 458 kts
2026-05-06 11:36 48.81774 21.33962 33935 ft 459 kts
2026-05-06 11:36 48.88128 21.35019 33935 ft 459 kts
2026-05-06 11:37 48.94477 21.36077 33929 ft 459 kts
2026-05-06 11:37 49.00828 21.37128 33924 ft 459 kts
2026-05-06 11:38 49.07171 21.38192 33921 ft 459 kts
2026-05-06 11:38 49.13475 21.39238 33921 ft 459 kts
2026-05-06 11:39 49.19824 21.40294 33909 ft 459 kts
2026-05-06 11:39 49.26179 21.41357 33899 ft 459 kts
2026-05-06 11:40 49.32531 21.42431 33891 ft 460 kts
2026-05-06 11:40 49.38897 21.43508 33892 ft 460 kts
2026-05-06 11:41 49.45252 21.44748 33888 ft 461 kts
2026-05-06 11:41 49.51577 21.46453 33885 ft 462 kts
2026-05-06 11:42 49.57894 21.48275 33879 ft 462 kts
2026-05-06 11:42 49.64221 21.49990 33879 ft 461 kts
2026-05-06 11:43 49.70509 21.51631 33875 ft 461 kts
2026-05-06 11:43 49.76831 21.53281 33881 ft 461 kts
2026-05-06 11:44 49.86305 21.55799 33879 ft 460 kts
2026-05-06 11:44 49.92608 21.57486 33874 ft 460 kts
2026-05-06 11:45 49.98922 21.59187 33874 ft 460 kts
2026-05-06 11:45 50.05229 21.60882 33868 ft 460 kts
2026-05-06 11:46 50.11541 21.62576 33867 ft 460 kts
2026-05-06 11:46 50.17850 21.64279 33866 ft 460 kts
2026-05-06 11:47 50.24158 21.65989 33851 ft 460 kts
2026-05-06 11:47 50.30470 21.67712 33855 ft 461 kts
2026-05-06 11:48 50.33640 21.68578 34042 ft 463 kts
2026-05-06 11:48 50.36776 21.69430 34301 ft 463 kts
2026-05-06 11:48 50.39986 21.70301 34576 ft 463 kts
2026-05-06 11:48 50.43116 21.71151 34835 ft 462 kts
2026-05-06 11:49 50.46285 21.72017 35083 ft 462 kts
2026-05-06 11:49 50.49452 21.72885 35334 ft 461 kts
2026-05-06 11:49 50.52613 21.73753 35576 ft 461 kts
2026-05-06 11:49 50.55774 21.74623 35808 ft 461 kts
2026-05-06 11:50 50.58931 21.75497 36032 ft 461 kts
2026-05-06 11:50 50.62088 21.76372 36244 ft 461 kts
2026-05-06 11:50 50.65247 21.77246 36459 ft 460 kts
2026-05-06 11:50 50.68393 21.78116 36676 ft 460 kts
2026-05-06 11:51 50.71554 21.78985 36806 ft 461 kts
2026-05-06 11:51 50.74710 21.79850 36818 ft 460 kts
2026-05-06 11:51 50.81016 21.81582 36813 ft 460 kts
2026-05-06 11:52 50.87324 21.83336 36812 ft 460 kts
2026-05-06 11:52 50.92573 21.84793 36811 ft 461 kts
2026-05-06 11:53 50.98886 21.86561 36808 ft 461 kts
2026-05-06 11:53 51.05208 21.88339 36804 ft 461 kts
2026-05-06 11:54 51.11537 21.90107 36800 ft 462 kts
2026-05-06 11:54 51.17869 21.91883 36797 ft 462 kts
2026-05-06 11:55 51.24206 21.93634 36796 ft 462 kts
2026-05-06 11:55 51.30549 21.95376 36795 ft 463 kts
2026-05-06 11:56 51.36901 21.97143 36795 ft 463 kts
2026-05-06 11:56 51.43258 21.98917 36792 ft 464 kts
2026-05-06 11:57 51.49568 22.00723 36791 ft 464 kts
2026-05-06 11:57 51.55926 22.02570 36791 ft 464 kts
2026-05-06 11:58 51.62288 22.04428 36789 ft 465 kts
2026-05-06 11:58 51.68657 22.06291 36789 ft 466 kts
2026-05-06 11:59 51.75035 22.08150 36791 ft 466 kts
2026-05-06 11:59 51.81350 22.09991 36788 ft 466 kts
2026-05-06 12:00 51.87735 22.11870 36785 ft 467 kts
2026-05-06 12:00 51.94086 22.13741 36781 ft 467 kts
2026-05-06 12:01 52.00480 22.15624 36770 ft 467 kts
2026-05-06 12:01 52.06885 22.17512 36780 ft 468 kts
2026-05-06 12:02 52.13295 22.19411 36791 ft 468 kts
2026-05-06 12:02 52.19692 22.21407 36783 ft 469 kts
2026-05-06 12:03 52.26067 22.23665 36789 ft 469 kts 10°
2026-05-06 12:03 52.32397 22.25978 36790 ft 469 kts 10°
2026-05-06 12:04 52.38771 22.28256 36786 ft 469 kts 10°
2026-05-06 12:04 52.45158 22.30496 36778 ft 470 kts
2026-05-06 12:05 52.51547 22.32747 36783 ft 470 kts 10°
2026-05-06 12:05 52.57930 22.35016 36777 ft 470 kts 10°
2026-05-06 12:06 52.64319 22.37301 36781 ft 470 kts 10°
2026-05-06 12:06 52.70717 22.39592 36777 ft 470 kts 10°
2026-05-06 12:07 52.77119 22.41896 36772 ft 471 kts 10°
2026-05-06 12:07 52.83478 22.44175 36776 ft 471 kts 10°
2026-05-06 12:08 52.89883 22.46477 36783 ft 471 kts 10°
2026-05-06 12:08 52.96287 22.48798 36779 ft 471 kts 10°
2026-05-06 12:09 53.02697 22.51135 36781 ft 472 kts 10°
2026-05-06 12:09 53.09109 22.53470 36780 ft 471 kts 10°
2026-05-06 12:10 53.15516 22.55808 36784 ft 471 kts 10°
2026-05-06 12:10 53.21925 22.58154 36782 ft 471 kts 10°
2026-05-06 12:11 53.28331 22.60511 36784 ft 472 kts 10°
2026-05-06 12:11 53.34703 22.62866 36785 ft 472 kts 10°
2026-05-06 12:12 53.41110 22.65235 36784 ft 472 kts 10°
2026-05-06 12:12 53.47523 22.67616 36787 ft 472 kts 10°
2026-05-06 12:13 53.53933 22.70002 36790 ft 472 kts 10°
2026-05-06 12:13 53.60348 22.72397 36793 ft 472 kts 10°
2026-05-06 12:14 53.66764 22.74793 36793 ft 472 kts 10°
2026-05-06 12:14 53.73178 22.77198 36801 ft 473 kts 10°
2026-05-06 12:15 53.79602 22.79617 36803 ft 473 kts 10°
2026-05-06 12:15 53.86023 22.82042 36806 ft 473 kts 10°
2026-05-06 12:16 53.92402 22.84465 36808 ft 473 kts 10°
2026-05-06 12:16 53.98830 22.86911 36818 ft 473 kts 10°
2026-05-06 12:17 54.05258 22.89360 36819 ft 474 kts 11°
2026-05-06 12:17 54.11502 22.93032 36823 ft 477 kts 19°
2026-05-06 12:18 54.17679 22.97172 36824 ft 477 kts 19°
2026-05-06 12:18 54.23857 23.01275 36837 ft 477 kts 19°
2026-05-06 12:19 54.30007 23.05318 36840 ft 475 kts 15°
2026-05-06 12:19 54.36432 23.07739 36841 ft 473 kts
2026-05-06 12:20 54.42897 23.09804 36856 ft 473 kts
2026-05-06 12:20 54.49361 23.11886 36859 ft 473 kts
2026-05-06 12:21 54.55827 23.13991 36861 ft 473 kts
2026-05-06 12:21 54.62291 23.16099 36868 ft 473 kts
2026-05-06 12:22 54.68761 23.18190 36872 ft 473 kts
2026-05-06 12:22 54.75184 23.20284 36879 ft 473 kts
2026-05-06 12:23 54.81650 23.22408 36888 ft 473 kts
2026-05-06 12:23 54.88118 23.24534 36888 ft 473 kts
2026-05-06 12:24 54.94585 23.26665 36894 ft 473 kts
2026-05-06 12:24 55.01054 23.28796 36898 ft 473 kts
2026-05-06 12:25 55.07520 23.30948 36900 ft 473 kts
2026-05-06 12:25 55.13989 23.33105 36907 ft 473 kts
2026-05-06 12:26 55.20424 23.35251 36909 ft 474 kts
2026-05-06 12:26 55.26897 23.37435 36913 ft 474 kts
2026-05-06 12:27 55.33370 23.39618 36917 ft 474 kts
2026-05-06 12:27 55.39845 23.41789 36923 ft 474 kts
2026-05-06 12:28 55.46321 23.43986 36928 ft 474 kts
2026-05-06 12:28 55.52793 23.46201 36932 ft 473 kts
2026-05-06 12:29 55.59217 23.48387 36930 ft 474 kts
2026-05-06 12:29 55.65687 23.50590 36937 ft 474 kts
2026-05-06 12:30 55.72157 23.52803 36936 ft 474 kts
2026-05-06 12:30 55.78634 23.55035 36936 ft 474 kts
2026-05-06 12:31 55.85104 23.57270 36933 ft 474 kts
2026-05-06 12:31 55.91584 23.59524 36933 ft 474 kts
2026-05-06 12:32 55.98017 23.61766 36938 ft 474 kts
2026-05-06 12:32 56.04502 23.64029 36943 ft 475 kts
2026-05-06 12:33 56.10987 23.66289 36948 ft 475 kts
2026-05-06 12:33 56.17471 23.68569 36954 ft 475 kts
2026-05-06 12:34 56.23960 23.70870 36962 ft 475 kts
2026-05-06 12:34 56.30453 23.73178 36960 ft 476 kts
2026-05-06 12:35 56.36943 23.75486 36959 ft 476 kts
2026-05-06 12:35 56.43387 23.77906 36964 ft 477 kts
2026-05-06 12:36 56.49864 23.80532 36968 ft 477 kts
2026-05-06 12:36 56.56346 23.83203 36968 ft 477 kts
2026-05-06 12:37 56.62833 23.85766 36972 ft 477 kts
2026-05-06 12:37 56.69307 23.88116 36978 ft 477 kts
2026-05-06 12:38 56.75826 23.90465 36979 ft 478 kts
2026-05-06 12:38 56.82340 23.92864 36983 ft 478 kts
2026-05-06 12:39 56.88866 23.95303 36978 ft 478 kts
2026-05-06 12:39 56.95386 23.97710 36979 ft 478 kts
2026-05-06 12:40 57.01885 23.99862 36981 ft 477 kts
2026-05-06 12:40 57.08430 24.01962 36981 ft 478 kts
2026-05-06 12:41 57.14975 24.04138 36987 ft 478 kts
2026-05-06 12:41 57.21525 24.06363 36987 ft 479 kts
2026-05-06 12:42 57.28028 24.08568 36996 ft 479 kts
2026-05-06 12:42 57.34582 24.10785 36998 ft 479 kts
2026-05-06 12:43 57.41138 24.13018 37005 ft 479 kts
2026-05-06 12:43 57.47691 24.15254 37005 ft 479 kts
2026-05-06 12:44 57.54205 24.17491 37012 ft 479 kts
2026-05-06 12:44 57.60754 24.19759 37017 ft 479 kts
2026-05-06 12:45 57.67312 24.22035 37016 ft 479 kts
2026-05-06 12:46 57.77140 24.25442 37025 ft 479 kts
2026-05-06 12:46 57.83649 24.27709 37031 ft 479 kts
2026-05-06 12:47 57.90193 24.30001 37021 ft 478 kts
2026-05-06 12:47 57.96742 24.32267 37025 ft 478 kts
2026-05-06 12:48 58.03281 24.34503 37029 ft 478 kts
2026-05-06 12:48 58.09824 24.36752 37033 ft 478 kts
2026-05-06 12:49 58.16316 24.38991 37038 ft 478 kts
2026-05-06 12:49 58.22856 24.41266 37043 ft 477 kts
2026-05-06 12:50 58.29390 24.43536 37047 ft 477 kts
2026-05-06 12:50 58.35920 24.45821 37054 ft 477 kts
2026-05-06 12:51 58.42400 24.48087 37050 ft 477 kts
2026-05-06 12:51 58.48923 24.50392 37052 ft 476 kts
2026-05-06 12:52 58.55436 24.52704 37049 ft 476 kts
2026-05-06 12:52 58.61938 24.55008 37040 ft 475 kts
2026-05-06 12:52 58.65181 24.56160 36864 ft 471 kts
2026-05-06 12:53 58.68384 24.57308 36484 ft 467 kts
2026-05-06 12:53 58.71590 24.58460 35720 ft 470 kts
2026-05-06 12:53 58.74813 24.59613 34970 ft 473 kts
2026-05-06 12:53 58.78022 24.60758 34327 ft 474 kts
2026-05-06 12:54 58.81250 24.61918 33842 ft 471 kts
2026-05-06 12:54 58.84460 24.63073 33294 ft 468 kts
2026-05-06 12:54 58.87655 24.64229 32775 ft 464 kts
2026-05-06 12:54 58.90815 24.65374 32259 ft 461 kts
2026-05-06 12:55 58.93959 24.66511 31744 ft 458 kts
2026-05-06 12:55 58.97078 24.67635 31228 ft 455 kts
2026-05-06 12:55 59.00187 24.68761 30713 ft 453 kts
2026-05-06 12:55 59.03280 24.69885 30201 ft 452 kts
2026-05-06 12:56 59.06322 24.70992 29648 ft 450 kts
2026-05-06 12:56 59.09387 24.72113 29142 ft 447 kts
2026-05-06 12:56 59.12432 24.73227 28629 ft 444 kts
2026-05-06 12:56 59.15456 24.74334 28131 ft 441 kts
2026-05-06 12:57 59.18467 24.75440 27633 ft 439 kts
2026-05-06 12:57 59.21457 24.76537 27151 ft 436 kts
2026-05-06 12:57 59.24433 24.77630 26663 ft 435 kts
2026-05-06 12:57 59.27403 24.78727 26197 ft 433 kts
2026-05-06 12:58 59.30352 24.79820 25721 ft 431 kts
2026-05-06 12:58 59.33294 24.80915 25281 ft 429 kts
2026-05-06 12:58 59.36218 24.82007 24835 ft 427 kts
2026-05-06 12:58 59.39128 24.83093 24374 ft 425 kts
2026-05-06 12:59 59.41973 24.84562 23933 ft 434 kts 11°
2026-05-06 12:59 59.44785 24.86809 23439 ft 436 kts 14°
2026-05-06 12:59 59.47574 24.89125 22940 ft 434 kts 14°
2026-05-06 12:59 59.50353 24.91444 22476 ft 431 kts 15°
2026-05-06 13:00 59.53105 24.93743 21991 ft 428 kts 15°
2026-05-06 13:00 59.55841 24.96026 21503 ft 425 kts 15°
2026-05-06 13:00 59.58561 24.98293 21016 ft 423 kts 15°
2026-05-06 13:00 59.61260 25.00545 20524 ft 420 kts 15°
2026-05-06 13:01 59.63946 25.02790 20005 ft 418 kts 15°
2026-05-06 13:01 59.66615 25.05033 19526 ft 416 kts 15°
2026-05-06 13:01 59.69272 25.07272 19012 ft 413 kts 16°
2026-05-06 13:01 59.71903 25.09486 18556 ft 409 kts 16°
2026-05-06 13:02 59.74514 25.11682 18105 ft 405 kts 16°
2026-05-06 13:02 59.77098 25.13863 17520 ft 402 kts 16°
2026-05-06 13:02 59.79615 25.15995 17077 ft 396 kts 16°
2026-05-06 13:02 59.82146 25.18136 16547 ft 392 kts 16°
2026-05-06 13:03 59.84638 25.20248 16008 ft 389 kts 16°
2026-05-06 13:03 59.87103 25.22340 15663 ft 380 kts 17°
2026-05-06 13:03 59.89518 25.24128 15537 ft 359 kts
2026-05-06 13:03 59.91902 25.24855 15416 ft 335 kts 353°
2026-05-06 13:04 59.94157 25.24672 15277 ft 318 kts 347°
2026-05-06 13:04 59.96343 25.24343 14989 ft 312 kts 347°
2026-05-06 13:04 59.98503 25.24026 14634 ft 310 kts 347°
2026-05-06 13:04 60.00646 25.23719 14279 ft 307 kts 347°
2026-05-06 13:05 60.02774 25.23420 13929 ft 305 kts 348°
2026-05-06 13:05 60.04878 25.23143 13565 ft 303 kts 351°
2026-05-06 13:05 60.06989 25.23661 13293 ft 307 kts
2026-05-06 13:05 60.09038 25.24552 12928 ft 304 kts
2026-05-06 13:06 60.11097 25.25462 12558 ft 302 kts
2026-05-06 13:06 60.13108 25.26360 12196 ft 298 kts
2026-05-06 13:06 60.15146 25.27275 11583 ft 294 kts
2026-05-06 13:06 60.17132 25.28163 10965 ft 291 kts
2026-05-06 13:07 60.19094 25.29041 10380 ft 287 kts
2026-05-06 13:07 60.21027 25.29907 9803 ft 283 kts
2026-05-06 13:07 60.22930 25.30760 9178 ft 278 kts
2026-05-06 13:07 60.24808 25.31598 8553 ft 275 kts
2026-05-06 13:08 60.26663 25.32425 7963 ft 271 kts
2026-05-06 13:08 60.28491 25.33246 7373 ft 268 kts
2026-05-06 13:08 60.30290 25.34055 7038 ft 263 kts 10°
2026-05-06 13:08 60.32096 25.34868 6899 ft 266 kts
2026-05-06 13:09 60.33898 25.35680 6839 ft 266 kts
2026-05-06 13:09 60.35711 25.36496 6971 ft 266 kts
2026-05-06 13:09 60.37470 25.37291 6994 ft 252 kts 10°
2026-05-06 13:09 60.39102 25.38716 6997 ft 275 kts 35°
2026-05-06 13:10 60.40448 25.41559 6798 ft 287 kts 49°
2026-05-06 13:10 60.41667 25.44775 6415 ft 287 kts 51°
2026-05-06 13:10 60.42838 25.47957 6008 ft 277 kts 51°
2026-05-06 13:10 60.43965 25.51042 5650 ft 267 kts 51°
2026-05-06 13:11 60.45040 25.54002 5339 ft 255 kts 51°
2026-05-06 13:11 60.46254 25.56430 5027 ft 238 kts 24°
2026-05-06 13:11 60.47777 25.57194 4770 ft 222 kts 352°
2026-05-06 13:11 60.48764 25.56884 4580 ft 213 kts 343°
2026-05-06 13:12 60.50177 25.56152 4245 ft 208 kts 341°
2026-05-06 13:12 60.51574 25.55354 3907 ft 210 kts 340°
2026-05-06 13:12 60.52956 25.54452 3640 ft 208 kts 334°
2026-05-06 13:12 60.54263 25.53219 3382 ft 207 kts 332°
2026-05-06 13:13 60.55471 25.51723 3119 ft 200 kts 309°
2026-05-06 13:13 60.55928 25.49208 2864 ft 192 kts 264°
2026-05-06 13:13 60.55313 25.46875 2637 ft 194 kts 224°
2026-05-06 13:13 60.54261 25.45169 2362 ft 192 kts 227°
2026-05-06 13:14 60.53361 25.43190 2104 ft 191 kts 231°
2026-05-06 13:14 60.52481 25.41194 1837 ft 189 kts 231°
2026-05-06 13:14 60.51611 25.39228 1586 ft 183 kts 230°
2026-05-06 13:14 60.50805 25.37418 1499 ft 165 kts 231°
2026-05-06 13:15 60.50097 25.35831 1505 ft 142 kts 232°
2026-05-06 13:15 60.49432 25.34332 1506 ft 143 kts 231°
2026-05-06 13:15 60.48767 25.32840 1513 ft 142 kts 231°
2026-05-06 13:15 60.48103 25.31351 1505 ft 143 kts 232°
2026-05-06 13:16 60.47435 25.29854 1514 ft 149 kts 231°
2026-05-06 13:16 60.46723 25.28258 1501 ft 154 kts 231°
2026-05-06 13:16 60.46010 25.26665 1499 ft 153 kts 231°
2026-05-06 13:16 60.45289 25.25052 1517 ft 159 kts 231°
2026-05-06 13:17 60.44550 25.23405 1503 ft 156 kts 231°
2026-05-06 13:17 60.43820 25.21773 1500 ft 158 kts 230°
2026-05-06 13:17 60.43073 25.20108 1520 ft 160 kts 231°
2026-05-06 13:17 60.42328 25.18448 1505 ft 158 kts 230°
2026-05-06 13:18 60.41595 25.16817 1499 ft 149 kts 231°
2026-05-06 13:18 60.40927 25.15332 1514 ft 142 kts 231°
2026-05-06 13:18 60.40263 25.13855 1514 ft 142 kts 232°
2026-05-06 13:18 60.39595 25.12370 1509 ft 141 kts 231°
2026-05-06 13:19 60.38939 25.10912 1514 ft 142 kts 230°
2026-05-06 13:19 60.38275 25.09439 1504 ft 141 kts 230°
2026-05-06 13:19 60.37609 25.07963 1480 ft 141 kts 232°
2026-05-06 13:19 60.36958 25.06523 1347 ft 136 kts 230°
2026-05-06 13:20 60.36316 25.05108 1304 ft 137 kts 230°
2026-05-06 13:20 60.35677 25.03689 1060 ft 135 kts 230°
2026-05-06 13:20 60.35042 25.02275 815 ft 137 kts 229°
2026-05-06 13:20 60.34412 25.00862 623 ft 137 kts 228°
2026-05-06 13:21 60.33769 24.99450 450 ft 136 kts 229°
2026-05-06 13:21 60.33132 24.98056 232 ft 135 kts 228°
2026-05-06 13:21 60.32530 24.96728 173 ft 112 kts 230°
2026-05-06 13:21 60.32212 24.96019 177 ft 25 kts 227°
2026-05-06 13:22 60.32139 24.95870 177 ft 25 kts 218°
2026-05-06 13:22 60.32002 24.95893 173 ft 15 kts 138°
2026-05-06 13:22 60.31987 24.95922 172 ft 3 kts 138°
2026-05-06 13:22 60.31965 24.95967 172 ft 5 kts 116°
2026-05-06 13:23 60.31979 24.96069 169 ft 9 kts 44°
2026-05-06 13:23 60.32034 24.96178 168 ft 13 kts 45°
2026-05-06 13:23 60.32101 24.96329 168 ft 17 kts 49°
2026-05-06 13:23 60.32182 24.96515 168 ft 19 kts 47°
2026-05-06 13:24 60.32237 24.96731 166 ft 16 kts 131°
2026-05-06 13:24 60.32138 24.96858 167 ft 18 kts 151°
2026-05-06 13:24 60.32021 24.96990 166 ft 21 kts 150°
2026-05-06 13:24 60.31889 24.97124 166 ft 18 kts 153°
2026-05-06 13:25 60.31774 24.97248 166 ft 20 kts 153°
2026-05-06 13:25 60.31688 24.97336 166 ft 8 kts 153°
2026-05-06 13:25 60.31654 24.97322 167 ft 4 kts 225°
2026-05-06 13:25 60.31640 24.97270 167 ft 3 kts 243°
2026-05-06 13:26 60.31633 24.97244 167 ft 0 kts 243°